Location: Pinon Hills
(34.4429°N, 117.6403°W)
Time: 08:19:55
(UTC-08:00)

Uosat F - Visible Passes

Search period start: 23 February 2017 00:00
Search period end: 05 March 2017 00:00
Orbit: 751 x 760 km, 98.8° (Epoch: 22 February)

Date Brightness Start Highest point End Pass type
(mag) Time Alt. Az. Time Alt. Az. Time Alt. Az.
23 Feb 13.9 05:29:40 10° NE 05:33:31 22° E 05:37:20 10° SE visible
23 Feb 12.9 18:17:15 10° SSW 18:21:53 37° W 18:26:32 10° NNW visible
25 Feb 13.1 05:48:53 10° NNE 05:53:27 34° E 05:58:01 10° SSE visible
25 Feb 13.8 18:37:51 10° SSW 18:41:49 23° W 18:45:48 10° NW visible
26 Feb 14.5 05:11:22 10° ENE 05:13:43 13° E 05:16:04 10° ESE visible
27 Feb 14.3 18:59:06 10° SW 19:01:49 14° W 19:04:32 10° WNW visible
28 Feb 14.0 05:29:54 10° NE 05:33:44 21° E 05:37:31 10° SE visible
28 Feb 12.9 18:17:27 10° SSW 18:22:05 37° W 18:26:46 10° NNW visible
02 Mar 13.2 05:49:07 10° NNE 05:53:41 34° E 05:58:12 10° SSE visible
02 Mar 13.8 18:38:02 10° SSW 18:42:02 24° W 18:46:03 10° NW visible
03 Mar 14.5 05:11:39 10° ENE 05:13:56 13° E 05:16:12 10° ESE visible
04 Mar 14.3 18:59:15 10° SW 19:02:01 15° W 19:04:48 10° WNW visible
